• In Latvia
  • List of Countries
  • For 7 days
  • Water Temperature
  • Satellite Maps
  • Weather Map
  • Weather Widgets
  • user-avatar
    Login

    Hourly Weather Minsk

    Today, 24 September, Monday

    Time Temperature Precipitation Wind Pressure Humidity
    00:00 +9°C° 0.4 mm 2 mps 737 mmHg 91%
    01:00 +9°C° 0.4 mm 2 mps 736 mmHg 92%
    02:00 +9°C° 0 mm 2 mps 735 mmHg 95%
    03:00 +9°C° 1.7 mm 2 mps 734 mmHg 95%
    04:00 +9°C° 1.7 mm 3 mps 733 mmHg 95%
    05:00 +8°C° 1.7 mm 4 mps 732 mmHg 95%
    06:00 +8°C° 3 mm 4 mps 731 mmHg 95%
    07:00 +7°C° 3 mm 4 mps 730 mmHg 95%
    08:00 +7°C° 0 mm 4 mps 728 mmHg 95%
    09:00 +7°C° 1.9 mm 5 mps 728 mmHg 94%
    10:00 +7°C° 1.9 mm 5 mps 728 mmHg 94%
    11:00 +7°C° 1.9 mm 6 mps 728 mmHg 93%
    12:00 +6°C° 0.6 mm 7 mps 729 mmHg 90%
    13:00 +8°C° 0.6 mm 7 mps 730 mmHg 86%
    14:00 +7°C° 0.6 mm 8 mps 731 mmHg 83%
    15:00 +8°C° 0.1 mm 7 mps 732 mmHg 82%
    16:00 +8°C° 0.1 mm 6 mps 732 mmHg 81%
    17:00 +8°C° 0.1 mm 5 mps 733 mmHg 79%
    18:00 +8°C° 0 mm 5 mps 734 mmHg 82%
    19:00 +7°C° 0 mm 5 mps 734 mmHg 85%
    20:00 +6°C° 0 mm 5 mps 735 mmHg 88%
    21:00 +6°C° 0 mm 5 mps 736 mmHg 88%
    22:00 +6°C° 0 mm 5 mps 736 mmHg 88%
    23:00 +5°C° 0 mm 5 mps 737 mmHg 88%

    Tomorrow, 25 September, Tuesday

    Time Temperature Precipitation Wind Pressure Humidity
    00:00 +5°C° 0 mm 5 mps 737 mmHg 88%
    01:00 +5°C° 0 mm 5 mps 738 mmHg 88%
    02:00 +3°C° 0 mm 5 mps 738 mmHg 88%
    03:00 +3°C° 0 mm 5 mps 739 mmHg 89%
    04:00 +3°C° 0 mm 5 mps 739 mmHg 89%
    05:00 +3°C° 0 mm 6 mps 740 mmHg 90%
    06:00 +3°C° 0 mm 6 mps 741 mmHg 86%
    07:00 +3°C° 0 mm 6 mps 741 mmHg 83%
    08:00 +4°C° 0 mm 7 mps 742 mmHg 79%
    09:00 +5°C° 0 mm 7 mps 743 mmHg 73%
    10:00 +6°C° 0 mm 7 mps 743 mmHg 67%
    11:00 +8°C° 0 mm 7 mps 744 mmHg 61%
    12:00 +8°C° 0.1 mm 7 mps 744 mmHg 58%
    13:00 +9°C° 0.1 mm 7 mps 745 mmHg 55%
    14:00 +9°C° 0.1 mm 7 mps 745 mmHg 52%
    15:00 +8°C° 0.1 mm 6 mps 746 mmHg 55%
    16:00 +8°C° 0.1 mm 6 mps 746 mmHg 58%
    17:00 +7°C° 0.1 mm 5 mps 747 mmHg 61%
    18:00 +6°C° 0 mm 5 mps 747 mmHg 61%
    19:00 +5°C° 0 mm 4 mps 748 mmHg 61%
    20:00 +4°C° 0 mm 4 mps 749 mmHg 61%
    21:00 +4°C° 0 mm 4 mps 749 mmHg 64%
    22:00 +3°C° 0 mm 4 mps 750 mmHg 66%
    23:00 +3°C° 0 mm 4 mps 751 mmHg 69%

    Day after tomorrow, 26 September, Wednesday

    Time Temperature Precipitation Wind Pressure Humidity
    00:00 +3°C° 0 mm 4 mps 751 mmHg 74%
    01:00 +1°C° 0 mm 4 mps 751 mmHg 79%
    02:00 +1°C° 0 mm 4 mps 752 mmHg 84%
    03:00 +2°C° 0 mm 3 mps 752 mmHg 86%
    04:00 +2°C° 0 mm 3 mps 752 mmHg 88%
    05:00 +2°C° 0 mm 3 mps 752 mmHg 89%
    06:00 +1°C° 0 mm 4 mps 753 mmHg 84%
    07:00 +3°C° 0 mm 4 mps 753 mmHg 80%
    08:00 +4°C° 0 mm 4 mps 753 mmHg 75%
    09:00 +6°C° 0 mm 5 mps 753 mmHg 69%
    10:00 +7°C° 0 mm 5 mps 753 mmHg 62%
    11:00 +9°C° 0 mm 5 mps 752 mmHg 56%
    12:00 +10°C° 0 mm 6 mps 752 mmHg 56%
    13:00 +10°C° 0 mm 6 mps 751 mmHg 56%
    14:00 +10°C° 0 mm 7 mps 751 mmHg 56%
    15:00 +10°C° 0.1 mm 6 mps 750 mmHg 60%
    16:00 +9°C° 0.1 mm 6 mps 750 mmHg 64%
    17:00 +8°C° 0.1 mm 6 mps 749 mmHg 69%
    18:00 +8°C° 0.2 mm 6 mps 748 mmHg 71%
    19:00 +8°C° 0.2 mm 7 mps 748 mmHg 73%
    20:00 +6°C° 0.2 mm 7 mps 747 mmHg 74%
    21:00 +6°C° 0.3 mm 7 mps 747 mmHg 76%
    22:00 +6°C° 0.3 mm 8 mps 746 mmHg 78%
    23:00 +6°C° 0.3 mm 8 mps 745 mmHg 80%

    27 September, Thursday

    Time Temperature Precipitation Wind Pressure Humidity
    00:00 +5°C° 0.3 mm 8 mps 744 mmHg 82%
    01:00 +5°C° 0.3 mm 8 mps 744 mmHg 85%
    02:00 +5°C° 0.3 mm 8 mps 743 mmHg 88%
    03:00 +6°C° 0.3 mm 8 mps 742 mmHg 88%
    04:00 +6°C° 0.3 mm 8 mps 742 mmHg 88%
    05:00 +6°C° 0.3 mm 8 mps 741 mmHg 89%
    06:00 +7°C° 0.3 mm 8 mps 741 mmHg 88%
    07:00 +7°C° 0.3 mm 8 mps 741 mmHg 88%
    08:00 +9°C° 0.3 mm 8 mps 741 mmHg 88%
    09:00 +10°C° 0.2 mm 8 mps 741 mmHg 88%
    10:00 +11°C° 0.2 mm 8 mps 741 mmHg 89%
    11:00 +11°C° 0.2 mm 8 mps 741 mmHg 89%
    12:00 +12°C° 0.2 mm 8 mps 741 mmHg 89%
    13:00 +12°C° 0.2 mm 8 mps 741 mmHg 89%
    14:00 +13°C° 0.2 mm 8 mps 741 mmHg 89%
    15:00 +13°C° 0.2 mm 8 mps 741 mmHg 89%
    16:00 +14°C° 0.2 mm 7 mps 741 mmHg 89%
    17:00 +14°C° 0.2 mm 7 mps 741 mmHg 89%
    18:00 +14°C° 0.1 mm 7 mps 741 mmHg 89%
    19:00 +14°C° 0.1 mm 7 mps 741 mmHg 88%
    20:00 +14°C° 0.1 mm 7 mps 741 mmHg 88%
    21:00 +13°C° 0.1 mm 6 mps 741 mmHg 89%
    22:00 +13°C° 0.1 mm 6 mps 741 mmHg 90%
    23:00 +11°C° 0.1 mm 6 mps 741 mmHg 91%

    28 September, Friday

    Time Temperature Precipitation Wind Pressure Humidity
    00:00 +11°C° 0 mm 6 mps 741 mmHg 91%
    01:00 +11°C° 0 mm 6 mps 741 mmHg 90%
    02:00 +11°C° 0 mm 6 mps 740 mmHg 90%
    03:00 +11°C° 0 mm 7 mps 740 mmHg 90%
    04:00 +12°C° 0 mm 7 mps 739 mmHg 89%
    05:00 +12°C° 0 mm 8 mps 739 mmHg 89%
    06:00 +12°C° 0.1 mm 8 mps 738 mmHg 88%
    07:00 +12°C° 0.1 mm 8 mps 738 mmHg 87%
    08:00 +12°C° 0.1 mm 8 mps 738 mmHg 86%
    09:00 +13°C° 0.1 mm 8 mps 739 mmHg 82%
    10:00 +15°C° 0.1 mm 8 mps 739 mmHg 78%
    11:00 +15°C° 0.1 mm 8 mps 739 mmHg 74%
    12:00 +15°C° 0.4 mm 8 mps 739 mmHg 76%
    13:00 +14°C° 0.4 mm 7 mps 740 mmHg 78%
    14:00 +14°C° 0.4 mm 6 mps 740 mmHg 80%
    15:00 +13°C° 0.2 mm 5 mps 740 mmHg 80%
    16:00 +13°C° 0.2 mm 5 mps 740 mmHg 80%
    17:00 +12°C° 0.2 mm 4 mps 740 mmHg 80%
    18:00 +11°C° 0 mm 4 mps 740 mmHg 82%
    19:00 +10°C° 0 mm 4 mps 741 mmHg 84%
    20:00 +9°C° 0 mm 3 mps 741 mmHg 85%
    21:00 +7°C° 0 mm 4 mps 741 mmHg 87%
    22:00 +7°C° 0 mm 4 mps 742 mmHg 88%
    23:00 +6°C° 0 mm 4 mps 742 mmHg 89%

    29 September, Saturday

    Time Temperature Precipitation Wind Pressure Humidity
    00:00 +6°C° 0 mm 4 mps 742 mmHg 88%
    01:00 +5°C° 0 mm 4 mps 743 mmHg 87%
    02:00 +5°C° 0 mm 4 mps 743 mmHg 86%
    03:00 +5°C° 0 mm 4 mps 743 mmHg 85%
    04:00 +5°C° 0 mm 4 mps 743 mmHg 85%
    05:00 +4°C° 0 mm 4 mps 744 mmHg 84%
    06:00 +4°C° 0 mm 4 mps 744 mmHg 84%
    07:00 +4°C° 0 mm 4 mps 745 mmHg 83%
    08:00 +3°C° 0 mm 5 mps 745 mmHg 82%
    09:00 +5°C° 0 mm 5 mps 746 mmHg 75%
    10:00 +6°C° 0 mm 5 mps 746 mmHg 67%
    11:00 +7°C° 0 mm 5 mps 747 mmHg 60%
    12:00 +8°C° 0 mm 5 mps 747 mmHg 56%
    13:00 +8°C° 0 mm 5 mps 747 mmHg 51%
    14:00 +9°C° 0 mm 5 mps 747 mmHg 47%
    15:00 +8°C° 0 mm 4 mps 748 mmHg 51%
    16:00 +9°C° 0 mm 3 mps 748 mmHg 54%
    17:00 +8°C° 0 mm 3 mps 748 mmHg 58%
    18:00 +7°C° 0 mm 2 mps 749 mmHg 62%
    19:00 +6°C° 0 mm 2 mps 749 mmHg 66%
    20:00 +5°C° 0 mm 2 mps 750 mmHg 70%
    21:00 +4°C° 0 mm 2 mps 750 mmHg 72%
    22:00 +4°C° 0 mm 2 mps 750 mmHg 73%
    23:00 +4°C° 0 mm 2 mps 750 mmHg 75%
    Show more